Weather in Yuzhnoye

Russia / Omsk Oblast     54°00′24″N   74°01′17″E
В апреле 2022 года жителям России запретили посещать сайт meteo.paraplan.net по решению Генеральной прокуратуры. Аудитория сайта уменьшилась в 10 раз. Владельцы сайта не видят смысла в поддержке погодного сервера в таких условиях. Сайт будет закрыт в октябре.
temp.,
°C
wind,
m/s
gust,
m/s
humid.,
%
clouds,
%
prec.,
mm/h
press.,
hPa
HPBL,
m
3 october, mon
mon300:00+2ese35624 0.0 103779
03:00+1ese346484 0.0 103671
06:000ese3469100 0.0 103755
09:00+2ese34630 0.0 1037169
12:00+7ese33460 0.0 1036824
15:00+8e22380 0.0 10351227
18:00+7ene22450 0.0 103552
21:00+4e34560 0.0 103650
4 october, tue
tue400:00+3ese22614 0.0 103616
03:00+2sse22633 0.0 103510
06:00+1ssw11643 0.0 103610
09:00+3sw125745 0.0 103793
12:00+7sw334241 0.0 1036651
15:00+10wsw343494 0.0 1035987
18:00+8wsw3541100 0.0 1035124
21:00+7wsw354782 0.0 103595
5 october, wed
wed500:00+8wsw4845100 0.0 1035223
03:00+7wsw494231 0.0 1034199
06:00+6w494844 0.0 1034166
09:00+7w495130 0.0 1035239
12:00+13wnw574648 0.0 1034521
15:00+16wnw67421 0.0 1033787
18:00+14wnw4848100 0.0 1033185
21:00+11w3553100 0.0 103377
6 october, thu
thu600:00+10w4750100 0.0 1033116
03:00+9w474996 0.0 1032127
06:00+8w3747100 0.0 1031137
09:00+9w3743100 0.0 1031224
12:00+13w4529100 0.0 1030470
15:00+14wnw3425100 0.0 1029675
18:00+12w2231100 0.0 102914
21:00+10ssw0035100 0.0 102910
7 october, fri
fri700:00+9s2235100 0.0 102810
03:00+8s2336100 0.0 102719
06:00+8sse3337100 0.0 102634
09:00+9sse4837100 0.0 1025174
12:00+14s5830100 0.0 1023414
15:00+16s6829100 0.0 1020706
18:00+14sse4941100 0.0 1019175
21:00+13sse51249100 0.0 1017224